📊 Raw Sensor Data
Showing records 41576 to 41600 of 84,985 total
| ID | Distance (ft) | Battery V | Battery A | Int Temp (°F) | Int Humid (%) | Ext Temp (°F) | Solar V | RSSI | SNR | Time Stamp |
|---|---|---|---|---|---|---|---|---|---|---|
| 43422 | 15.4 | 4.02 | -5 | 60 | 49 | 60 | 0.00 | -68 | 8 | 06/13/2025 09:30 PM |
| 43421 | 15.4 | 4.02 | -5 | 62 | 49 | 62 | 0.10 | -67 | 8 | 06/13/2025 09:15 PM |
| 43420 | 15.4 | 4.02 | -5 | 63 | 51 | 63 | 0.00 | -70 | 8 | 06/13/2025 09:00 PM |
| 43419 | 15.4 | 3.96 | -5 | 65 | 52 | 64 | 0.60 | -68 | 7 | 06/13/2025 08:45 PM |
| 43418 | 15.5 | 3.95 | -10 | 68 | 52 | 66 | 3.30 | -68 | 8 | 06/13/2025 08:30 PM |
| 43417 | 15.5 | 4.03 | 0 | 72 | 50 | 70 | 4.50 | -67 | 7 | 06/13/2025 08:15 PM |
| 43416 | 15.5 | 3.97 | 0 | 74 | 51 | 70 | 4.50 | -70 | 8 | 06/13/2025 08:00 PM |
| 43415 | 15.5 | 4.07 | -11 | 78 | 48 | 75 | 4.50 | -68 | 8 | 06/13/2025 07:45 PM |
| 43414 | 15.5 | 4.07 | 5 | 77 | 50 | 75 | 4.50 | -69 | 8 | 06/13/2025 07:30 PM |
| 43413 | 15.5 | 4.01 | -12 | 76 | 53 | 74 | 4.50 | -67 | 8 | 06/13/2025 07:15 PM |
| 43412 | 15.5 | 4.05 | 15 | 79 | 53 | 76 | 4.50 | -69 | 7 | 06/13/2025 07:00 PM |
| 43411 | 15.6 | 4.02 | 0 | 88 | 49 | 82 | 5.10 | -71 | 7 | 06/13/2025 06:30 PM |
| 43410 | 15.6 | 4.02 | 0 | 86 | 52 | 81 | 5.10 | -70 | 8 | 06/13/2025 06:15 PM |
| 43409 | 15.6 | 4.02 | 0 | 87 | 53 | 79 | 5.10 | -70 | 7 | 06/13/2025 06:00 PM |
| 43408 | 15.7 | 4.02 | 0 | 93 | 49 | 84 | 5.10 | -69 | 8 | 06/13/2025 05:45 PM |
| 43407 | 15.7 | 4.02 | 0 | 94 | 48 | 85 | 5.10 | -69 | 8 | 06/13/2025 05:30 PM |
| 43406 | 15.7 | 4.02 | 0 | 95 | 47 | 86 | 5.10 | -69 | 8 | 06/13/2025 05:15 PM |
| 43405 | 15.7 | 4.02 | 0 | 96 | 46 | 86 | 5.10 | -71 | 8 | 06/13/2025 05:00 PM |
| 43404 | 15.7 | 4.02 | 0 | 95 | 45 | 87 | 5.10 | -69 | 8 | 06/13/2025 04:45 PM |
| 43403 | 15.7 | 4.01 | 0 | 94 | 46 | 86 | 5.10 | -70 | 8 | 06/13/2025 04:30 PM |
| 43402 | 15.6 | 4.06 | 0 | 95 | 45 | 88 | 5.10 | -70 | 7 | 06/13/2025 04:15 PM |
| 43401 | 15.7 | 4.01 | 0 | 95 | 45 | 88 | 5.10 | -72 | 7 | 06/13/2025 04:00 PM |
| 43400 | 15.7 | 4.14 | 0 | 95 | 44 | 88 | 5.10 | -68 | 8 | 06/13/2025 03:45 PM |
| 43399 | 15.7 | 4.01 | 0 | 95 | 43 | 87 | 5.10 | -72 | 7 | 06/13/2025 03:30 PM |
| 43398 | 15.7 | 4.01 | 0 | 95 | 43 | 89 | 5.10 | -69 | 8 | 06/13/2025 03:15 PM |